Location: Utrecht
(52.0907°N, 5.1214°E)
Time: 00:33:23
(UTC+02:00)

DIWATA 2B (PO-101) - Pass Details

Date: 01 July 2022
Orbit: 583 x 599 km, 98.0° (Epoch: 16 August)

Event Time Altitude Azimuth Distance (km) Brightness Sun altitude
Exits shadow 03:39:10 12° 179° (S) 1,838 ? -10.6°
Maximum altitude 03:43:05 59° 258° (WSW) 696 ? -10.4°
Drops below altitude 10° 03:47:17 10° 339° (NNW) 1,953 ? -10.1°
Sets 03:49:30 0° 343° (NNW) 2,860 ? -9.9°
